Погода в Константиновске

Погода в Константиновске : погода сейчас, прогноз погоды и архив. Всё, что Вы хотите узнать о погоде в Константиновске!

Поиск расширенной информации на нашем сайте:

Другие новости

Новости СМИ2

Главная страница сайта

Новости сайта

03.07.2017

Напоминаем, что на нашем специализированном сайте Метеоцентр.Азия вы можете получить высокодетализированные автоматические прогнозы погоды по пунктам России, СНГ и мира в авиационном формате (включающие направление и скорость ветра, видимость, явления погоды, количество и форму облачности, нижнюю и верхнюю границу облачности).


Погода в Константиновске - сегодня

Время (UTC), дата Ветер
(°,м/с) 
Видим.   Явления Облачность Т
(°С)
Тd
(°С)
f(%) Тe
(°С)
Pmin
(гПа)
dP
(гПа)
Po
(мм)
O2
(г/м3)
Тmin Tmax R s Состояние
почвы
12 20.10.17 260 (З) 4000 м  дымка  10/10 600 м 
[Sc]
+13.2 +11.1 87 +16  1018.5  -0.4  758  289           
15 20.10.17 тихо ()   4000 м  дымка  10/8 600 м средняя 
[Sc|Ac As]
+12.7 +11.2 91 +15  1018.7  0.2  758  290    +13.3       
18 20.10.17 250 (З) 4000 м  дымка  10/8 600 м средняя 
[Sc|Ac As]
+12.7 +11 89 +16  1018.8  0.1  758  290           
21 20.10.17 270 (З) 2000 м  дымка  10/10 600 м 
[Sc]
+10.1 +8.9 92 +11  1018.2  -0.7  758  293           
00 21.10.17 тихо ()   2000 м  дымка  10/10 600 м 
[Sc]
+10.9 +9.9 94 +12  1017.8  -0.3  758  292           
03 21.10.17 040 (СВ) 4000 м  дымка  10/8 600 м средняя 
[Sc|Ac As]
+8.9 +7.2 89 +8  1017.6  -0.3  758  294  +9         
06 21.10.17 030 (СВ) 4000 м  слаб. дождь  10/8 300 м средняя 
[Sc|Ac As]
+8.3 +7.3 93 +8  1018  0.4  758  295  +8         
09 21.10.17 060 (СВ) 4000 м  дымка{дождь}  10/6 600 м средняя 
[Sc|Ac As]
+9.2 +7.1 87 +9  1017.6  -0.4  758  294           
12 21.10.17 040 (СВ) 10 км  {дождь}  10/8 600 м средняя 
[Cu Sc|Ac As]
+10.7 +7.6 81 +11  1016.1  -1.4  756  292           
15 21.10.17 тихо ()   10 км    10/8 600 м средняя 
[Cu Sc|Ac As]
+10.1 +7.7 85 +10  1015.9  -0.2  756  293    +10.9  0.5     
18 21.10.17 060 (СВ) 4000 м  дымка{ливн. осадки}  10/8 300 м кучево-дожд., средняя 
[Cb calv|Ac As]
+8.4 +6.7 89 +8  1015.3  -0.7  756  294           
21 21.10.17 080 (В) 4000 м  слаб. ливневой дождь  10/10 300 м кучево-дожд. 
[Cb cap]
+7.7 +6.7 93 +8  1014.1  -1.2  755  295           
00 22.10.17 080 (В) 4000 м  слаб. ливневой дождь  10/10 300 м кучево-дожд. 
[Cb cap]
+7.2 +6.3 94 +7  1012.4  -1.7  754  295           
03 22.10.17 070 (В) 4000 м  дымка{ливн. осадки}  10/10 300 м кучево-дожд. 
[Cb calv]
+7.4 +6.6 95 +8  1011  -1.3  753  294  +7.2       
06 22.10.17 030 (СВ) 4000 м  дымка{ливн. осадки}  10/10 300 м кучево-дожд. 
[Cb calv]
+7.4 +6.5 94 +7  1011.1  753  294           
09 22.10.17 050 (СВ) 4000 м  слаб. ливневой дождь  10/10 300 м кучево-дожд. 
[Cb calv]
+7.2 +6 92 +7  1010.8  -0.2  752  294           
12 22.10.17 040 (СВ) 4000 м  слаб. ливневой дождь  10/10 300 м кучево-дожд. 
[Cb calv]
+6.8 +5.5 91 +7  1011.3  0.4  753  295           
15 22.10.17 020 (С) 4000 м  {ливн. осадки}  8/6 300 м кучево-дожд., средняя 
[Cb calv|As op]
+6.1 +4.5 89 +5  1012.7  1.4  754  296    +7.6     
18 22.10.17 020 (С) 4000 м  дымка{ливн. осадки}  10/10 300 м кучево-дожд. 
[Cb calv]
+5.4 +3.6 88 +5  1014.7  1.9  755  298           
21 22.10.17 010 (С) 4000 м  дымка  10/10 600 м 
[Cu Sc]
+5.1 +3.5 89 +5  1016.8  2.1  757  299           
00 23.10.17 010 (С) 4000 м    8/8 600 м 
[Cu Sc]
+3.8 +1.8 87 +3  1018.7  1.8  758  301           
03 23.10.17 360 (С) 4000 м  дымка  ясно 
+0.2 -0.6 94 +1  1020.6  1.8  760  306  -0.1    0.3     
06 23.10.17 040 (СВ) 4000 м  дымка  ясно 
+1.1 +0.3 94 1022.3  1.7  761  305  -0.4         
09 23.10.17 040 (СВ) 4000 м  дымка  10/6 600 м средняя 
[Cu Sc|Ac As]
+2.9 +1.2 89 +2  1023.2  0.9  762  303           
12 23.10.17 130 (ЮВ) 10 км    8/5 600 м средняя 
[Cu hum|Ac trans]
+6.3 +0.1 64 +6  1022.3  -0.7  761  300           
Время (UTC), дата Ветер
(°,м/с) 
Видим.   Явления Облачность Т
(°С)
Тd
(°С)
f(%) Тe
(°С)
Pmin
(гПа)
dP
(гПа)
Po
(мм)
O2
(г/м3)
Тmin Tmax R s Состояние
почвы

Для получения пояснительной информации подведите курсор к названию столбца.

ПОГОДА в Константиновске - архив

Всё, что Вы хотите узнать о погоде в Константиновске - удобно и подробно!

Выберите нужную дату (начиная с 1 января 2015* года) и нажмите кнопку "Найти".
Будут отображены архивные сводки погоды по пункту Константиновск, начиная с указанной даты.


Отображать данные в формате CSV (для использования в таблицах Excel)


Внимание! Наш архив погоды предназначен исключительно для личного некоммерческого использования в познавательных целях. Если Вам необходимы официальные справки о состоянии погоды (для производственных, юридических, коммерческих и т.п. целей), обращайтесь в органы Росгидромета.

*Примечание: данная дата относится к архиву по метеостанциям СССР (Россия, СНГ, Балтия).
Архив по метеостанциям Зарубежной Европы и Азии (кроме Китая) хранится 10 дней, по другим регионам земного шара (Китай, Африка, Америка, Австралия, Океания) - 1 день.

Константиновск - район местоположения метеостанции


Название, широта, долгота, высота метеостанции:
Константиновск 47.6°ш. 41.1°д. 66 м над ур. моря [Российская Федерация]

Дополнительная информация

В oтличие oт бoльшинства пoгoдных сайтoв мы публикуем пoдрoбную метеoинфoрмацию в детальнoм прoфессиoнальнoм фoрмате.

Характеристики температуры и влажнoсти вoздуха измеряются на высoте 2 м в тени вдали oт зданий и деревьев.
Скoрoсть ветра измеряется на высoте 10 м (на урoвне рoста челoвека скoрoсть ветра ниже в 1.5-2 раза). Если метеoстанция нахoдится в гoрoде или в лесу, тo скoрoсть ветра занижена на 2-4 м/с пo сравнению с oткрытым местoм. Скoрoсть ветра над акватoриями крупных рек и oзёр, а также на вершинах хoлмoв на 2-5 м/с выше, чем в oбычных услoвиях.
Атмoсфернoе давление в разных тoчках местнoсти мoжет значительнo oтличаться oт давления на метеoстанции, в зависимoсти oт услoвий рельефа (при пoдъёме на 10 м давление пoнижается примернo на 1 мм рт.ст.).